Find Starlink 1443

NORAD ID: 45660 Int'l Des: 2020-035 Owner: SPXS Country: US Constellation: starlink operational
LEOCIRCULAR

Live Position

Loading 3D Globe...

About Starlink 1443

Description loading...

Upcoming Passes

Passes for default location (London). Set your location on the main map for personalized predictions.

Altitude History

Loading altitude history...

Two-Line Element Set

1 45660U 20035D 26127.26581833 .00030358 00000-0 10340-2 0 9994
2 45660 53.1342 153.6962 0004226 3.5825 356.5205 15.30158615327711
Epoch: May 7, 2026 • Age: 6 hours

Current Status

Altitude 475.0 km
Velocity 7.63 km/s
Sub-Earth Point 32.01°N, 122.42°E
Launch Date Jun 4, 2020
Age 5.9 years
Type internet

Technical Details

Classification Payload
Mass 260.00 kg
Dry Mass 248.00 kg
Total Mass 260.00 kg
Length 0.20 m
Diameter 2.80 m
Span 9.00 m
Shape Box + pan
Manufacturer SPXS
Bus Type Starlink
Phase Status In Orbit
Owner/State SPXS/US

Most Searched